Time,TemperatureF,DewpointF,PressureIn,WindDirection,WindDirectionDegrees,WindSpeedMPH,WindSpeedGustMPH,Humidity,HourlyPrecipIn,Conditions,Clouds,dailyrainin,SoftwareType,DateUTC
2013-01-13 00:00:00,36.3,23.4,29.59,SE,135,0.0,0.0,59,0.00,,CLR,0.00,VWS V14.01,2013-01-13 08:00:00,
2013-01-13 00:05:00,36.0,23.4,29.59,SE,135,0.0,0.0,60,0.00,,CLR,0.00,VWS V14.01,2013-01-13 08:05:00,
2013-01-13 00:10:00,35.8,22.9,29.59,SE,135,0.0,0.0,59,0.00,,CLR,0.00,VWS V14.01,2013-01-13 08:10:00,
2013-01-13 00:15:00,35.6,23.1,29.59,SE,135,0.0,0.0,60,0.00,,CLR,0.00,VWS V14.01,2013-01-13 08:15:00,
2013-01-13 00:20:00,35.2,22.8,29.59,SSE,158,0.0,0.0,60,0.00,,CLR,0.00,VWS V14.01,2013-01-13 08:20:00,
2013-01-13 00:25:00,35.1,23.0,29.59,SSE,158,0.0,0.0,61,0.00,,CLR,0.00,VWS V14.01,2013-01-13 08:25:00,
2013-01-13 00:30:00,35.1,23.0,29.59,SSE,158,0.0,0.0,61,0.00,,CLR,0.00,VWS V14.01,2013-01-13 08:30:00,
2013-01-13 00:35:00,34.9,22.8,29.59,SSE,158,0.0,0.0,61,0.00,,CLR,0.00,VWS V14.01,2013-01-13 08:35:00,
2013-01-13 00:40:00,35.2,23.1,29.59,SSE,158,0.0,0.0,61,0.00,,CLR,0.00,VWS V14.01,2013-01-13 08:40:00,
2013-01-13 00:45:00,35.4,23.3,29.59,SSE,158,0.0,0.0,61,0.00,,CLR,0.00,VWS V14.01,2013-01-13 08:45:00,
2013-01-13 00:50:00,35.4,23.3,29.59,SSE,158,0.0,0.0,61,0.00,,CLR,0.00,VWS V14.01,2013-01-13 08:50:00,
2013-01-13 00:55:00,35.6,23.1,29.59,SSE,158,0.0,0.0,60,0.00,,CLR,0.00,VWS V14.01,2013-01-13 08:55:00,
2013-01-13 01:00:00,35.6,23.1,29.59,SSE,158,0.0,0.0,60,0.00,,CLR,0.00,VWS V14.01,2013-01-13 09:00:00,
2013-01-13 01:05:00,35.4,23.3,29.59,SSE,158,0.0,0.0,61,0.00,,CLR,0.00,VWS V14.01,2013-01-13 09:05:00,
2013-01-13 01:10:00,35.4,23.3,29.59,SSE,158,0.0,0.0,61,0.00,,CLR,0.00,VWS V14.01,2013-01-13 09:10:00,
2013-01-13 01:15:00,35.4,22.9,29.59,SSE,158,0.0,0.0,60,0.00,,CLR,0.00,VWS V14.01,2013-01-13 09:15:00,
2013-01-13 01:21:00,35.6,23.1,29.62,SSE,158,0.0,0.0,60,0.00,,CLR,0.00,VWS V14.01,2013-01-13 09:21:00,
2013-01-13 01:26:00,35.6,23.1,29.62,SSE,158,0.0,0.0,60,0.00,,CLR,0.00,VWS V14.01,2013-01-13 09:26:00,
2013-01-13 01:31:00,35.8,23.3,29.59,SSE,158,0.0,0.0,60,0.00,,CLR,0.00,VWS V14.01,2013-01-13 09:31:00,
2013-01-13 01:36:00,35.8,23.3,29.59,SSE,158,0.0,0.0,60,0.00,,CLR,0.00,VWS V14.01,2013-01-13 09:36:00,
2013-01-13 01:41:00,36.1,23.6,29.59,SSE,158,0.0,0.0,60,0.00,,CLR,0.00,VWS V14.01,2013-01-13 09:41:00,
2013-01-13 01:46:00,36.3,23.8,29.59,SSE,158,0.0,0.0,60,0.00,,CLR,0.00,VWS V14.01,2013-01-13 09:46:00,
2013-01-13 01:51:00,36.7,23.7,29.59,SSE,158,0.0,0.0,59,0.00,,CLR,0.00,VWS V14.01,2013-01-13 09:51:00,
2013-01-13 01:56:00,36.9,23.9,29.59,SSE,158,0.0,0.0,59,0.00,,CLR,0.00,VWS V14.01,2013-01-13 09:56:00,
2013-01-13 02:01:00,37.0,23.6,29.62,East,90,0.0,0.0,58,0.00,,CLR,0.00,VWS V14.01,2013-01-13 10:01:00,
2013-01-13 02:06:00,37.0,23.6,29.62,East,90,0.0,0.0,58,0.00,,CLR,0.00,VWS V14.01,2013-01-13 10:06:00,
2013-01-13 02:11:00,37.0,23.6,29.62,East,90,0.0,0.0,58,0.00,,CLR,0.00,VWS V14.01,2013-01-13 10:11:00,
2013-01-13 02:16:00,37.0,23.2,29.59,East,90,0.0,0.0,57,0.00,,CLR,0.00,VWS V14.01,2013-01-13 10:16:00,
2013-01-13 02:21:00,36.9,23.1,29.59,East,90,0.0,0.0,57,0.00,,CLR,0.00,VWS V14.01,2013-01-13 10:21:00,
2013-01-13 02:26:00,36.5,22.7,29.59,East,90,0.0,0.0,57,0.00,,CLR,0.00,VWS V14.01,2013-01-13 10:26:00,
2013-01-13 02:31:00,36.3,22.6,29.59,East,90,0.0,0.0,57,0.00,,CLR,0.00,VWS V14.01,2013-01-13 10:31:00,
2013-01-13 02:36:00,35.8,22.5,29.59,East,90,0.0,0.0,58,0.00,,CLR,0.00,VWS V14.01,2013-01-13 10:36:00,
2013-01-13 02:41:00,35.8,22.5,29.59,East,90,0.0,0.0,58,0.00,,CLR,0.00,VWS V14.01,2013-01-13 10:41:00,
2013-01-13 02:46:00,35.8,22.5,29.59,East,90,0.0,0.0,58,0.00,,CLR,0.00,VWS V14.01,2013-01-13 10:46:00,
2013-01-13 02:51:00,36.1,22.8,29.59,East,90,0.0,0.0,58,0.00,,CLR,0.00,VWS V14.01,2013-01-13 10:51:00,
2013-01-13 02:56:00,36.1,22.8,29.59,East,90,0.0,0.0,58,0.00,,CLR,0.00,VWS V14.01,2013-01-13 10:56:00,
2013-01-13 03:01:00,36.5,22.7,29.59,East,90,0.0,0.0,57,0.00,,CLR,0.00,VWS V14.01,2013-01-13 11:01:00,
2013-01-13 03:06:00,36.3,22.6,29.59,East,90,0.0,0.0,57,0.00,,CLR,0.00,VWS V14.01,2013-01-13 11:06:00,
2013-01-13 03:11:00,36.3,22.6,29.59,East,90,0.0,0.0,57,0.00,,CLR,0.00,VWS V14.01,2013-01-13 11:11:00,
2013-01-13 03:16:00,36.3,22.6,29.59,East,90,0.0,0.0,57,0.00,,CLR,0.00,VWS V14.01,2013-01-13 11:16:00,
2013-01-13 03:21:00,36.3,22.6,29.59,East,90,0.0,0.0,57,0.00,,CLR,0.00,VWS V14.01,2013-01-13 11:21:00,
2013-01-13 03:26:00,36.3,22.6,29.59,East,90,0.0,0.0,57,0.00,,CLR,0.00,VWS V14.01,2013-01-13 11:26:00,
2013-01-13 03:31:00,36.5,22.7,29.59,East,90,0.0,0.0,57,0.00,,CLR,0.00,VWS V14.01,2013-01-13 11:31:00,
2013-01-13 03:36:00,36.7,22.5,29.59,East,90,0.0,0.0,56,0.00,,CLR,0.00,VWS V14.01,2013-01-13 11:36:00,
2013-01-13 03:41:00,36.7,22.5,29.59,East,90,0.0,0.0,56,0.00,,CLR,0.00,VWS V14.01,2013-01-13 11:41:00,
2013-01-13 03:48:00,36.5,22.3,29.59,East,90,0.0,0.0,56,0.00,,CLR,0.00,VWS V14.01,2013-01-13 11:48:00,
2013-01-13 03:53:00,36.3,22.1,29.59,East,90,0.0,0.0,56,0.00,,CLR,0.00,VWS V14.01,2013-01-13 11:53:00,
2013-01-13 03:58:00,36.3,22.1,29.59,East,90,0.0,0.0,56,0.00,,CLR,0.00,VWS V14.01,2013-01-13 11:58:00,
2013-01-13 04:03:00,36.3,22.1,29.59,East,90,0.0,0.0,56,0.00,,CLR,0.00,VWS V14.01,2013-01-13 12:03:00,
2013-01-13 04:08:00,36.0,21.8,29.59,East,90,0.0,0.0,56,0.00,,CLR,0.00,VWS V14.01,2013-01-13 12:08:00,
2013-01-13 04:13:00,35.6,21.5,29.59,East,90,0.0,0.0,56,0.00,,CLR,0.00,VWS V14.01,2013-01-13 12:13:00,
2013-01-13 04:18:00,35.6,21.9,29.59,East,90,0.0,0.0,57,0.00,,CLR,0.00,VWS V14.01,2013-01-13 12:18:00,
2013-01-13 04:24:00,35.4,21.7,29.59,East,90,0.0,0.0,57,0.00,,CLR,0.00,VWS V14.01,2013-01-13 12:24:00,
2013-01-13 04:29:00,35.6,21.9,29.59,East,90,0.0,0.0,57,0.00,,CLR,0.00,VWS V14.01,2013-01-13 12:29:00,
2013-01-13 04:34:00,35.4,21.7,29.59,East,90,0.0,0.0,57,0.00,,CLR,0.00,VWS V14.01,2013-01-13 12:34:00,
2013-01-13 04:39:00,35.2,21.5,29.59,East,90,0.0,0.0,57,0.00,,CLR,0.00,VWS V14.01,2013-01-13 12:39:00,
2013-01-13 04:44:00,35.1,21.4,29.59,East,90,0.0,0.0,57,0.00,,CLR,0.00,VWS V14.01,2013-01-13 12:44:00,
2013-01-13 04:49:00,35.1,21.0,29.59,East,90,0.0,0.0,56,0.00,,CLR,0.00,VWS V14.01,2013-01-13 12:49:00,
2013-01-13 04:54:00,34.9,21.2,29.59,East,90,0.0,0.0,57,0.00,,CLR,0.00,VWS V14.01,2013-01-13 12:54:00,
2013-01-13 04:59:00,34.7,21.0,29.59,East,90,0.0,0.0,57,0.00,,CLR,0.00,VWS V14.01,2013-01-13 12:59:00,
2013-01-13 05:04:00,34.5,20.9,29.59,East,90,0.0,0.0,57,0.00,,CLR,0.00,VWS V14.01,2013-01-13 13:04:00,
2013-01-13 05:09:00,34.5,20.9,29.59,East,90,0.0,0.0,57,0.00,,CLR,0.00,VWS V14.01,2013-01-13 13:09:00,
2013-01-13 05:14:00,34.7,21.5,29.62,East,90,0.0,0.0,58,0.00,,CLR,0.00,VWS V14.01,2013-01-13 13:14:00,
2013-01-13 05:19:00,34.9,21.6,29.62,East,90,0.0,0.0,58,0.00,,CLR,0.00,VWS V14.01,2013-01-13 13:19:00,
2013-01-13 05:24:00,35.1,21.8,29.62,East,90,0.0,0.0,58,0.00,,CLR,0.00,VWS V14.01,2013-01-13 13:24:00,
2013-01-13 05:29:00,34.9,21.6,29.62,East,90,0.0,0.0,58,0.00,,CLR,0.00,VWS V14.01,2013-01-13 13:29:00,
2013-01-13 05:34:00,35.1,21.8,29.62,East,90,0.0,0.0,58,0.00,,CLR,0.00,VWS V14.01,2013-01-13 13:34:00,
2013-01-13 05:39:00,35.2,22.0,29.62,East,90,0.0,0.0,58,0.00,,CLR,0.00,VWS V14.01,2013-01-13 13:39:00,
2013-01-13 05:44:00,35.2,22.0,29.62,East,90,0.0,0.0,58,0.00,,CLR,0.00,VWS V14.01,2013-01-13 13:44:00,
2013-01-13 05:49:00,35.1,21.4,29.62,East,90,0.0,0.0,57,0.00,,CLR,0.00,VWS V14.01,2013-01-13 13:49:00,
2013-01-13 05:54:00,35.2,21.5,29.62,East,90,0.0,0.0,57,0.00,,CLR,0.00,VWS V14.01,2013-01-13 13:54:00,
2013-01-13 05:59:00,35.2,21.5,29.59,East,90,0.0,0.0,57,0.00,,CLR,0.00,VWS V14.01,2013-01-13 13:59:00,
2013-01-13 06:05:00,35.6,21.9,29.59,East,90,0.0,0.0,57,0.00,,CLR,0.00,VWS V14.01,2013-01-13 14:05:00,
2013-01-13 06:10:00,35.8,22.0,29.59,East,90,0.0,0.0,57,0.00,,CLR,0.00,VWS V14.01,2013-01-13 14:10:00,
2013-01-13 06:15:00,35.8,22.0,29.59,East,90,0.0,0.0,57,0.00,,CLR,0.00,VWS V14.01,2013-01-13 14:15:00,
2013-01-13 06:20:00,35.4,22.1,29.59,East,90,0.0,0.0,58,0.00,,CLR,0.00,VWS V14.01,2013-01-13 14:20:00,
2013-01-13 06:25:00,35.2,22.0,29.59,East,90,0.0,0.0,58,0.00,,CLR,0.00,VWS V14.01,2013-01-13 14:25:00,
2013-01-13 06:30:00,35.2,22.0,29.59,East,90,0.0,0.0,58,0.00,,CLR,0.00,VWS V14.01,2013-01-13 14:30:00,
2013-01-13 06:35:00,34.9,21.6,29.62,East,90,0.0,0.0,58,0.00,,CLR,0.00,VWS V14.01,2013-01-13 14:35:00,
2013-01-13 06:40:00,34.7,21.5,29.62,East,90,0.0,0.0,58,0.00,,CLR,0.00,VWS V14.01,2013-01-13 14:40:00,
2013-01-13 06:45:00,34.7,21.5,29.59,East,90,0.0,0.0,58,0.00,,CLR,0.00,VWS V14.01,2013-01-13 14:45:00,
2013-01-13 06:50:00,34.7,21.5,29.59,East,90,0.0,0.0,58,0.00,,CLR,0.00,VWS V14.01,2013-01-13 14:50:00,
2013-01-13 06:55:00,34.5,21.3,29.59,East,90,0.0,0.0,58,0.00,,CLR,0.00,VWS V14.01,2013-01-13 14:55:00,
2013-01-13 07:00:00,34.3,21.1,29.59,East,90,0.0,0.0,58,0.00,,CLR,0.00,VWS V14.01,2013-01-13 15:00:00,
2013-01-13 07:05:00,34.2,20.9,29.59,East,90,0.0,0.0,58,0.00,,CLR,0.00,VWS V14.01,2013-01-13 15:05:00,
2013-01-13 07:10:00,34.2,20.5,29.59,East,90,0.0,0.0,57,0.00,,CLR,0.00,VWS V14.01,2013-01-13 15:10:00,
2013-01-13 07:15:00,34.2,20.5,29.59,East,90,0.0,0.0,57,0.00,,CLR,0.00,VWS V14.01,2013-01-13 15:15:00,
2013-01-13 07:20:00,34.2,20.5,29.62,East,90,0.0,0.0,57,0.00,,CLR,0.00,VWS V14.01,2013-01-13 15:20:00,
2013-01-13 07:25:00,34.3,20.3,29.62,East,90,0.0,0.0,56,0.00,,CLR,0.00,VWS V14.01,2013-01-13 15:25:00,
2013-01-13 07:30:00,34.3,20.3,29.59,East,90,0.0,0.0,56,0.00,,CLR,0.00,VWS V14.01,2013-01-13 15:30:00,
2013-01-13 07:35:00,34.9,20.4,29.59,East,90,0.0,0.0,55,0.00,,CLR,0.00,VWS V14.01,2013-01-13 15:35:00,
2013-01-13 07:40:00,35.6,20.6,29.59,East,90,0.0,0.0,54,0.00,,CLR,0.00,VWS V14.01,2013-01-13 15:40:00,
2013-01-13 07:45:00,36.0,21.0,29.62,East,90,0.0,0.0,54,0.00,,CLR,0.00,VWS V14.01,2013-01-13 15:45:00,
2013-01-13 07:50:00,36.3,20.8,29.62,East,90,0.0,0.0,53,0.00,,CLR,0.00,VWS V14.01,2013-01-13 15:50:00,
2013-01-13 07:55:00,36.3,20.4,29.62,East,90,0.0,0.0,52,0.00,,CLR,0.00,VWS V14.01,2013-01-13 15:55:00,
2013-01-13 08:01:00,36.7,20.7,29.62,East,90,0.0,0.0,52,0.00,,CLR,0.00,VWS V14.01,2013-01-13 16:01:00,
2013-01-13 08:06:00,37.0,21.1,29.62,East,90,0.0,0.0,52,0.00,,CLR,0.00,VWS V14.01,2013-01-13 16:06:00,
2013-01-13 08:12:00,37.4,20.9,29.62,East,90,0.0,0.0,51,0.00,,CLR,0.00,VWS V14.01,2013-01-13 16:12:00,
2013-01-13 08:17:00,37.6,21.1,29.62,East,90,0.0,0.0,51,0.00,,CLR,0.00,VWS V14.01,2013-01-13 16:17:00,
2013-01-13 08:22:00,37.9,21.4,29.62,East,90,0.0,0.0,51,0.00,,CLR,0.00,VWS V14.01,2013-01-13 16:22:00,
2013-01-13 08:27:00,39.2,22.6,29.62,East,90,0.0,0.0,51,0.00,,CLR,0.00,VWS V14.01,2013-01-13 16:27:00,
2013-01-13 08:32:00,42.4,25.6,29.65,East,90,0.0,0.0,51,0.00,,CLR,0.00,VWS V14.01,2013-01-13 16:32:00,
2013-01-13 08:37:00,43.9,26.9,29.65,East,90,0.0,0.0,51,0.00,,CLR,0.00,VWS V14.01,2013-01-13 16:37:00,
2013-01-13 08:42:00,45.9,27.8,29.65,East,90,0.0,0.0,49,0.00,,CLR,0.00,VWS V14.01,2013-01-13 16:42:00,
2013-01-13 08:47:00,47.3,27.6,29.62,East,90,0.0,0.0,46,0.00,,CLR,0.00,VWS V14.01,2013-01-13 16:47:00,
2013-01-13 08:52:00,48.6,27.6,29.62,East,90,0.0,0.0,44,0.00,,CLR,0.00,VWS V14.01,2013-01-13 16:52:00,
2013-01-13 08:57:00,50.2,28.0,29.62,East,90,0.0,0.0,42,0.00,,CLR,0.00,VWS V14.01,2013-01-13 16:57:00,
2013-01-13 09:02:00,50.9,27.5,29.65,East,90,0.0,0.0,40,0.00,,CLR,0.00,VWS V14.01,2013-01-13 17:02:00,
2013-01-13 09:07:00,52.0,27.8,29.65,East,90,0.0,0.0,39,0.00,,CLR,0.00,VWS V14.01,2013-01-13 17:07:00,
2013-01-13 09:12:00,52.5,27.7,29.65,East,90,0.0,0.0,38,0.00,,CLR,0.00,VWS V14.01,2013-01-13 17:12:00,
2013-01-13 09:17:00,53.6,27.3,29.65,East,90,0.0,0.0,36,0.00,,CLR,0.00,VWS V14.01,2013-01-13 17:17:00,
2013-01-13 09:22:00,54.3,28.0,29.65,East,90,0.0,0.0,36,0.00,,CLR,0.00,VWS V14.01,2013-01-13 17:22:00,
2013-01-13 09:27:00,54.5,28.1,29.65,East,90,0.0,0.0,36,0.00,,CLR,0.00,VWS V14.01,2013-01-13 17:27:00,
2013-01-13 09:32:00,55.4,28.2,29.65,ESE,112,0.0,0.0,35,0.00,,CLR,0.00,VWS V14.01,2013-01-13 17:32:00,
2013-01-13 09:37:00,55.9,28.7,29.65,ESE,112,0.0,0.0,35,0.00,,CLR,0.00,VWS V14.01,2013-01-13 17:37:00,
2013-01-13 09:42:00,56.3,26.8,29.65,ESE,112,0.0,0.0,32,0.00,,CLR,0.00,VWS V14.01,2013-01-13 17:42:00,
2013-01-13 09:47:00,56.5,27.0,29.65,ESE,112,0.0,0.0,32,0.00,,CLR,0.00,VWS V14.01,2013-01-13 17:47:00,
2013-01-13 09:52:00,56.8,26.5,29.65,ESE,112,0.0,0.0,31,0.00,,CLR,0.00,VWS V14.01,2013-01-13 17:52:00,
2013-01-13 09:57:00,56.7,25.6,29.65,ESE,112,0.0,0.0,30,0.00,,CLR,0.00,VWS V14.01,2013-01-13 17:57:00,
2013-01-13 10:02:00,56.5,23.8,29.65,ESE,112,0.0,0.0,28,0.00,,CLR,0.00,VWS V14.01,2013-01-13 18:02:00,
2013-01-13 10:08:00,56.5,24.6,29.65,ESE,112,0.0,0.0,29,0.00,,CLR,0.00,VWS V14.01,2013-01-13 18:08:00,
2013-01-13 10:13:00,57.6,24.7,29.65,ESE,112,0.0,0.0,28,0.00,,CLR,0.00,VWS V14.01,2013-01-13 18:13:00,
2013-01-13 10:18:00,57.4,24.6,29.62,ESE,112,0.0,0.0,28,0.00,,CLR,0.00,VWS V14.01,2013-01-13 18:18:00,
2013-01-13 10:23:00,57.6,24.7,29.62,ESE,112,0.0,0.0,28,0.00,,CLR,0.00,VWS V14.01,2013-01-13 18:23:00,
2013-01-13 10:28:00,58.6,25.6,29.62,ESE,112,0.0,0.0,28,0.00,,CLR,0.00,VWS V14.01,2013-01-13 18:28:00,
2013-01-13 10:33:00,58.8,25.8,29.62,ESE,112,0.0,0.0,28,0.00,,CLR,0.00,VWS V14.01,2013-01-13 18:33:00,
2013-01-13 10:38:00,58.3,24.5,29.62,ESE,112,0.0,0.0,27,0.00,,CLR,0.00,VWS V14.01,2013-01-13 18:38:00,
2013-01-13 10:43:00,59.2,25.2,29.62,ESE,112,0.0,0.0,27,0.00,,CLR,0.00,VWS V14.01,2013-01-13 18:43:00,
2013-01-13 10:49:00,59.9,25.9,29.62,ESE,112,0.0,0.0,27,0.00,,CLR,0.00,VWS V14.01,2013-01-13 18:49:00,
2013-01-13 10:54:00,59.9,25.0,29.62,ESE,112,0.0,0.0,26,0.00,,CLR,0.00,VWS V14.01,2013-01-13 18:54:00,
2013-01-13 10:59:00,59.2,25.2,29.62,ESE,112,0.0,0.0,27,0.00,,CLR,0.00,VWS V14.01,2013-01-13 18:59:00,
2013-01-13 11:04:00,59.5,24.6,29.65,ESE,112,0.0,0.0,26,0.00,,FEW065,0.00,VWS V14.01,2013-01-13 19:04:00,
2013-01-13 11:10:00,60.3,26.2,29.65,ESE,112,0.0,0.0,27,0.00,,FEW065,0.00,VWS V14.01,2013-01-13 19:10:00,
2013-01-13 11:15:00,59.9,25.0,29.62,ESE,112,0.0,0.0,26,0.00,,FEW065,0.00,VWS V14.01,2013-01-13 19:15:00,
2013-01-13 11:20:00,61.0,26.8,29.62,ESE,112,0.0,0.0,27,0.00,,FEW065,0.00,VWS V14.01,2013-01-13 19:20:00,
2013-01-13 11:25:00,61.2,26.0,29.62,ESE,112,0.0,0.0,26,0.00,,FEW065,0.00,VWS V14.01,2013-01-13 19:25:00,
2013-01-13 11:30:00,59.9,25.0,29.62,ESE,112,0.0,0.0,26,0.00,,FEW065,0.00,VWS V14.01,2013-01-13 19:30:00,
2013-01-13 11:35:00,60.4,25.4,29.62,ESE,112,0.0,0.0,26,0.00,,FEW065,0.00,VWS V14.01,2013-01-13 19:35:00,
2013-01-13 11:40:00,60.4,25.4,29.62,ESE,112,0.0,0.0,26,0.00,,FEW065,0.00,VWS V14.01,2013-01-13 19:40:00,
2013-01-13 11:45:00,61.2,26.0,29.59,ESE,112,0.0,0.0,26,0.00,,FEW065,0.00,VWS V14.01,2013-01-13 19:45:00,
2013-01-13 11:50:00,61.3,26.2,29.59,ESE,112,0.0,0.0,26,0.00,,FEW065,0.00,VWS V14.01,2013-01-13 19:50:00,
2013-01-13 11:55:00,60.6,25.6,29.59,ESE,112,0.0,0.0,26,0.00,,FEW065,0.00,VWS V14.01,2013-01-13 19:55:00,
2013-01-13 12:00:00,60.1,25.1,29.59,ESE,112,0.0,0.0,26,0.00,,FEW065,0.00,VWS V14.01,2013-01-13 20:00:00,
2013-01-13 12:05:00,59.7,24.8,29.59,ESE,112,0.0,0.0,26,0.00,,FEW065,0.00,VWS V14.01,2013-01-13 20:05:00,
2013-01-13 12:10:00,59.9,25.0,29.59,ESE,112,0.0,0.0,26,0.00,,FEW065,0.00,VWS V14.01,2013-01-13 20:10:00,
2013-01-13 12:15:00,60.3,25.3,29.56,ESE,112,0.0,0.0,26,0.00,,FEW065,0.00,VWS V14.01,2013-01-13 20:15:00,
2013-01-13 12:20:00,59.9,25.0,29.56,ESE,112,0.0,0.0,26,0.00,,FEW065,0.00,VWS V14.01,2013-01-13 20:20:00,
2013-01-13 12:25:00,60.4,25.4,29.56,ESE,112,0.0,0.0,26,0.00,,FEW065,0.00,VWS V14.01,2013-01-13 20:25:00,
2013-01-13 12:30:00,60.3,25.3,29.56,ESE,112,0.0,0.0,26,0.00,,FEW065,0.00,VWS V14.01,2013-01-13 20:30:00,
2013-01-13 12:35:00,60.4,25.4,29.56,ESE,112,0.0,0.0,26,0.00,,FEW065,0.00,VWS V14.01,2013-01-13 20:35:00,
2013-01-13 12:40:00,60.4,25.4,29.56,ESE,112,0.0,0.0,26,0.00,,FEW065,0.00,VWS V14.01,2013-01-13 20:40:00,
2013-01-13 12:45:00,61.0,25.9,29.56,ESE,112,0.0,0.0,26,0.00,,FEW065,0.00,VWS V14.01,2013-01-13 20:45:00,
2013-01-13 12:50:00,60.6,25.6,29.56,ESE,112,0.0,0.0,26,0.00,,FEW065,0.00,VWS V14.01,2013-01-13 20:50:00,
2013-01-13 12:55:00,60.8,25.7,29.56,ESE,112,0.0,0.0,26,0.00,,FEW065,0.00,VWS V14.01,2013-01-13 20:55:00,
2013-01-13 13:00:00,59.9,25.0,29.56,ESE,112,0.0,0.0,26,0.00,,FEW065,0.00,VWS V14.01,2013-01-13 21:00:00,
2013-01-13 13:05:00,59.5,24.6,29.56,ESE,112,0.0,0.0,26,0.00,,FEW065,0.00,VWS V14.01,2013-01-13 21:05:00,
2013-01-13 13:10:00,59.2,25.2,29.56,ESE,112,0.0,0.0,27,0.00,,FEW065,0.00,VWS V14.01,2013-01-13 21:10:00,
2013-01-13 13:15:00,59.5,25.5,29.56,ESE,112,0.0,0.0,27,0.00,,FEW065,0.00,VWS V14.01,2013-01-13 21:15:00,
2013-01-13 13:20:00,60.6,26.5,29.56,ESE,112,0.0,0.0,27,0.00,,FEW065,0.00,VWS V14.01,2013-01-13 21:20:00,
2013-01-13 13:25:00,60.4,27.2,29.56,ESE,112,0.0,0.0,28,0.00,,FEW065,0.00,VWS V14.01,2013-01-13 21:25:00,
2013-01-13 13:30:00,59.9,25.9,29.53,ESE,112,0.0,0.0,27,0.00,,FEW065,0.00,VWS V14.01,2013-01-13 21:30:00,
2013-01-13 13:35:00,59.7,26.6,29.53,ESE,112,0.0,0.0,28,0.00,,FEW065,0.00,VWS V14.01,2013-01-13 21:35:00,
2013-01-13 13:40:00,58.8,26.6,29.53,ESE,112,0.0,0.0,29,0.00,,FEW065,0.00,VWS V14.01,2013-01-13 21:40:00,
2013-01-13 13:45:00,58.6,26.5,29.53,ESE,112,0.0,0.0,29,0.00,,FEW065,0.00,VWS V14.01,2013-01-13 21:45:00,
2013-01-13 13:50:00,58.3,26.2,29.53,ESE,112,0.0,0.0,29,0.00,,FEW065,0.00,VWS V14.01,2013-01-13 21:50:00,
2013-01-13 13:55:00,58.1,26.0,29.53,ESE,112,0.0,0.0,29,0.00,,FEW065,0.00,VWS V14.01,2013-01-13 21:55:00,
2013-01-13 14:01:00,57.9,25.9,29.56,ESE,112,0.0,0.0,29,0.00,,FEW065,0.00,VWS V14.01,2013-01-13 22:01:00,
2013-01-13 14:06:00,57.7,25.7,29.56,ESE,112,0.0,0.0,29,0.00,,BKN250,0.00,VWS V14.01,2013-01-13 22:06:00,
2013-01-13 14:11:00,58.1,26.0,29.56,ESE,112,0.0,0.0,29,0.00,,BKN250,0.00,VWS V14.01,2013-01-13 22:11:00,
2013-01-13 14:16:00,57.9,25.9,29.53,ESE,112,0.0,0.0,29,0.00,,BKN250,0.00,VWS V14.01,2013-01-13 22:16:00,
2013-01-13 14:21:00,57.7,25.7,29.53,ESE,112,0.0,0.0,29,0.00,,BKN250,0.00,VWS V14.01,2013-01-13 22:21:00,
2013-01-13 14:26:00,57.4,25.4,29.53,ESE,112,0.0,0.0,29,0.00,,BKN250,0.00,VWS V14.01,2013-01-13 22:26:00,
2013-01-13 14:31:00,57.6,25.6,29.56,ESE,112,0.0,0.0,29,0.00,,BKN250,0.00,VWS V14.01,2013-01-13 22:31:00,
2013-01-13 14:36:00,57.6,25.6,29.56,ESE,112,0.0,0.0,29,0.00,,BKN250,0.00,VWS V14.01,2013-01-13 22:36:00,
2013-01-13 14:41:00,57.4,25.4,29.56,ESE,112,0.0,0.0,29,0.00,,BKN250,0.00,VWS V14.01,2013-01-13 22:41:00,
2013-01-13 14:46:00,57.6,25.6,29.56,ESE,112,0.0,0.0,29,0.00,,BKN250,0.00,VWS V14.01,2013-01-13 22:46:00,
2013-01-13 14:51:00,57.7,24.9,29.56,ESE,112,0.0,0.0,28,0.00,,BKN250,0.00,VWS V14.01,2013-01-13 22:51:00,
2013-01-13 14:56:00,57.6,24.7,29.56,ESE,112,0.0,0.0,28,0.00,,BKN250,0.00,VWS V14.01,2013-01-13 22:56:00,
2013-01-13 15:01:00,56.8,24.1,29.56,ESE,112,0.0,0.0,28,0.00,,BKN250,0.00,VWS V14.01,2013-01-13 23:01:00,
2013-01-13 15:06:00,56.5,23.8,29.56,ESE,112,0.0,0.0,28,0.00,,BKN250,0.00,VWS V14.01,2013-01-13 23:06:00,
2013-01-13 15:11:00,56.7,24.0,29.56,ESE,112,0.0,0.0,28,0.00,,BKN250,0.00,VWS V14.01,2013-01-13 23:11:00,
2013-01-13 15:16:00,56.7,24.0,29.53,ESE,112,0.0,0.0,28,0.00,,BKN250,0.00,VWS V14.01,2013-01-13 23:16:00,
2013-01-13 15:21:00,56.7,24.0,29.53,ESE,112,0.0,0.0,28,0.00,,BKN250,0.00,VWS V14.01,2013-01-13 23:21:00,
2013-01-13 15:26:00,56.3,23.6,29.53,ESE,112,0.0,0.0,28,0.00,,BKN250,0.00,VWS V14.01,2013-01-13 23:26:00,
2013-01-13 15:31:00,56.7,24.8,29.56,ESE,112,0.0,0.0,29,0.00,,BKN250,0.00,VWS V14.01,2013-01-13 23:31:00,
2013-01-13 15:36:00,56.5,23.8,29.56,ESE,112,0.0,0.0,28,0.00,,BKN250,0.00,VWS V14.01,2013-01-13 23:36:00,
2013-01-13 15:41:00,57.2,24.4,29.56,ESE,112,0.0,0.0,28,0.00,,BKN250,0.00,VWS V14.01,2013-01-13 23:41:00,
2013-01-13 15:46:00,57.2,24.4,29.56,ESE,112,0.0,0.0,28,0.00,,BKN250,0.00,VWS V14.01,2013-01-13 23:46:00,
2013-01-13 15:51:00,57.7,24.9,29.56,ESE,112,0.0,0.0,28,0.00,,BKN250,0.00,VWS V14.01,2013-01-13 23:51:00,
2013-01-13 15:56:00,57.9,25.0,29.56,ESE,112,0.0,0.0,28,0.00,,BKN250,0.00,VWS V14.01,2013-01-13 23:56:00,
2013-01-13 16:01:00,57.4,24.6,29.56,ESE,112,0.0,0.0,28,0.00,,OVC230,0.00,VWS V14.01,2013-01-14 00:01:00,
2013-01-13 16:06:00,55.4,22.9,29.56,ESE,112,0.0,0.0,28,0.00,,OVC230,0.00,VWS V14.01,2013-01-14 00:06:00,
2013-01-13 16:11:00,54.3,21.9,29.56,ESE,112,0.0,0.0,28,0.00,,OVC230,0.00,VWS V14.01,2013-01-14 00:11:00,
2013-01-13 16:16:00,53.2,21.8,29.56,ESE,112,0.0,0.0,29,0.00,,OVC230,0.00,VWS V14.01,2013-01-14 00:16:00,
2013-01-13 16:21:00,52.5,21.2,29.56,ESE,112,0.0,0.0,29,0.00,,OVC230,0.00,VWS V14.01,2013-01-14 00:21:00,
2013-01-13 16:26:00,52.0,21.5,29.56,ESE,112,0.0,0.0,30,0.00,,OVC230,0.00,VWS V14.01,2013-01-14 00:26:00,
2013-01-13 16:31:00,51.1,21.5,29.56,ESE,112,0.0,0.0,31,0.00,,OVC230,0.00,VWS V14.01,2013-01-14 00:31:00,
2013-01-13 16:36:00,50.7,22.0,29.56,ESE,112,0.0,0.0,32,0.00,,OVC230,0.00,VWS V14.01,2013-01-14 00:36:00,
2013-01-13 16:41:00,51.6,23.5,29.56,ESE,112,0.0,0.0,33,0.00,,OVC230,0.00,VWS V14.01,2013-01-14 00:41:00,
2013-01-13 16:46:00,50.5,22.5,29.56,ESE,112,0.0,0.0,33,0.00,,OVC230,0.00,VWS V14.01,2013-01-14 00:46:00,
2013-01-13 16:52:00,49.5,23.0,29.56,ESE,112,0.0,0.0,35,0.00,,OVC230,0.00,VWS V14.01,2013-01-14 00:52:00,
2013-01-13 16:57:00,48.6,23.5,29.56,ESE,112,0.0,0.0,37,0.00,,OVC230,0.00,VWS V14.01,2013-01-14 00:57:00,
2013-01-13 17:02:00,48.0,23.6,29.56,ESE,112,0.0,0.0,38,0.00,,BKN230,0.00,VWS V14.01,2013-01-14 01:02:00,
2013-01-13 17:07:00,47.7,23.9,29.56,ESE,112,0.0,0.0,39,0.00,,BKN230,0.00,VWS V14.01,2013-01-14 01:07:00,
2013-01-13 17:13:00,47.1,23.5,29.56,ESE,112,0.0,0.0,39,0.00,,BKN230,0.00,VWS V14.01,2013-01-14 01:13:00,
2013-01-13 17:18:00,46.6,24.2,29.56,ESE,112,0.0,0.0,41,0.00,,BKN230,0.00,VWS V14.01,2013-01-14 01:18:00,
2013-01-13 17:23:00,46.2,24.4,29.56,ESE,112,0.0,0.0,42,0.00,,BKN230,0.00,VWS V14.01,2013-01-14 01:23:00,
2013-01-13 17:28:00,45.9,25.2,29.56,ESE,112,0.0,0.0,44,0.00,,BKN230,0.00,VWS V14.01,2013-01-14 01:28:00,
2013-01-13 17:33:00,45.7,26.1,29.56,ESE,112,0.0,0.0,46,0.00,,BKN230,0.00,VWS V14.01,2013-01-14 01:33:00,
2013-01-13 17:38:00,45.5,27.0,29.56,ESE,112,0.0,0.0,48,0.00,,BKN230,0.00,VWS V14.01,2013-01-14 01:38:00,
2013-01-13 17:43:00,45.3,26.8,29.56,ESE,112,0.0,0.0,48,0.00,,BKN230,0.00,VWS V14.01,2013-01-14 01:43:00,
2013-01-13 17:48:00,45.0,26.5,29.56,ESE,112,0.0,0.0,48,0.00,,BKN230,0.00,VWS V14.01,2013-01-14 01:48:00,
2013-01-13 17:53:00,44.8,26.8,29.56,ESE,112,0.0,0.0,49,0.00,,BKN230,0.00,VWS V14.01,2013-01-14 01:53:00,
2013-01-13 17:58:00,44.8,26.8,29.56,ESE,112,0.0,0.0,49,0.00,,BKN230,0.00,VWS V14.01,2013-01-14 01:58:00,
2013-01-13 18:03:00,44.6,27.1,29.56,ESE,112,0.0,0.0,50,0.00,,BKN230,0.00,VWS V14.01,2013-01-14 02:03:00,
2013-01-13 18:08:00,44.4,27.4,29.56,ESE,112,0.0,0.0,51,0.00,,BKN230,0.00,VWS V14.01,2013-01-14 02:08:00,
2013-01-13 18:13:00,44.4,27.9,29.56,ESE,112,0.0,0.0,52,0.00,,BKN230,0.00,VWS V14.01,2013-01-14 02:13:00,
2013-01-13 18:18:00,44.2,27.7,29.56,ESE,112,0.0,0.0,52,0.00,,BKN230,0.00,VWS V14.01,2013-01-14 02:18:00,
2013-01-13 18:23:00,44.1,28.0,29.56,ESE,112,0.0,0.0,53,0.00,,BKN230,0.00,VWS V14.01,2013-01-14 02:23:00,
2013-01-13 18:28:00,43.9,27.9,29.56,ESE,112,0.0,0.0,53,0.00,,BKN230,0.00,VWS V14.01,2013-01-14 02:28:00,
2013-01-13 18:33:00,43.7,28.2,29.56,ESE,112,0.0,0.0,54,0.00,,BKN230,0.00,VWS V14.01,2013-01-14 02:33:00,
2013-01-13 18:38:00,43.5,28.0,29.56,ESE,112,0.0,0.0,54,0.00,,BKN230,0.00,VWS V14.01,2013-01-14 02:38:00,
2013-01-13 18:43:00,43.5,28.4,29.56,ESE,112,0.0,0.0,55,0.00,,BKN230,0.00,VWS V14.01,2013-01-14 02:43:00,
2013-01-13 18:48:00,43.5,28.9,29.56,ESE,112,0.0,0.0,56,0.00,,BKN230,0.00,VWS V14.01,2013-01-14 02:48:00,
2013-01-13 18:53:00,43.3,28.7,29.56,ESE,112,0.0,0.0,56,0.00,,BKN230,0.00,VWS V14.01,2013-01-14 02:53:00,
2013-01-13 18:58:00,43.2,28.5,29.56,ESE,112,0.0,0.0,56,0.00,,BKN230,0.00,VWS V14.01,2013-01-14 02:58:00,
2013-01-13 19:03:00,43.0,28.4,29.56,ESE,112,0.0,0.0,56,0.00,,SCT220,0.00,VWS V14.01,2013-01-14 03:03:00,
2013-01-13 19:08:00,42.6,28.0,29.56,ESE,112,0.0,0.0,56,0.00,,SCT220,0.00,VWS V14.01,2013-01-14 03:08:00,
2013-01-13 19:13:00,42.6,28.0,29.56,ESE,112,0.0,0.0,56,0.00,,SCT220,0.00,VWS V14.01,2013-01-14 03:13:00,
2013-01-13 19:18:00,42.8,28.2,29.56,ESE,112,0.0,0.0,56,0.00,,SCT220,0.00,VWS V14.01,2013-01-14 03:18:00,
2013-01-13 19:23:00,43.0,28.8,29.56,ESE,112,0.0,0.0,57,0.00,,SCT220,0.00,VWS V14.01,2013-01-14 03:23:00,
2013-01-13 19:28:00,43.0,28.8,29.56,ESE,112,0.0,0.0,57,0.00,,SCT220,0.00,VWS V14.01,2013-01-14 03:28:00,
2013-01-13 19:33:00,42.8,28.2,29.56,ESE,112,0.0,0.0,56,0.00,,SCT220,0.00,VWS V14.01,2013-01-14 03:33:00,
2013-01-13 19:38:00,42.4,27.9,29.56,ESE,112,0.0,0.0,56,0.00,,SCT220,0.00,VWS V14.01,2013-01-14 03:38:00,
2013-01-13 19:43:00,42.4,27.9,29.56,ESE,112,0.0,0.0,56,0.00,,SCT220,0.00,VWS V14.01,2013-01-14 03:43:00,
2013-01-13 19:50:00,42.1,27.5,29.59,ESE,112,0.0,0.0,56,0.00,,SCT220,0.00,VWS V14.01,2013-01-14 03:50:00,
2013-01-13 19:55:00,41.7,27.2,29.59,ESE,112,0.0,0.0,56,0.00,,SCT220,0.00,VWS V14.01,2013-01-14 03:55:00,
2013-01-13 20:00:00,41.4,26.9,29.56,ESE,112,0.0,0.0,56,0.00,,SCT220,0.00,VWS V14.01,2013-01-14 04:00:00,
2013-01-13 20:04:00,41.2,26.7,29.56,ESE,112,0.0,0.0,56,0.00,,SCT220,0.00,VWS V14.01,2013-01-14 04:04:00,
2013-01-13 20:09:00,40.8,26.4,29.56,ESE,112,0.0,0.0,56,0.00,,SCT220,0.00,VWS V14.01,2013-01-14 04:09:00,
2013-01-13 20:14:00,40.8,27.6,29.56,ESE,112,0.0,0.0,59,0.00,,SCT220,0.00,VWS V14.01,2013-01-14 04:14:00,
2013-01-13 20:19:00,40.6,26.6,29.56,ESE,112,0.0,0.0,57,0.00,,SCT220,0.00,VWS V14.01,2013-01-14 04:19:00,
2013-01-13 20:25:00,40.1,26.1,29.56,ESE,112,0.0,0.0,57,0.00,,SCT220,0.00,VWS V14.01,2013-01-14 04:25:00,
2013-01-13 20:30:00,39.7,25.8,29.56,ESE,112,0.0,0.0,57,0.00,,SCT220,0.00,VWS V14.01,2013-01-14 04:30:00,
2013-01-13 20:35:00,39.6,25.2,29.56,ESE,112,0.0,0.0,56,0.00,,SCT220,0.00,VWS V14.01,2013-01-14 04:35:00,
2013-01-13 20:40:00,39.4,25.0,29.56,ESE,112,0.0,0.0,56,0.00,,SCT220,0.00,VWS V14.01,2013-01-14 04:40:00,
2013-01-13 20:45:00,39.4,25.0,29.59,ESE,112,0.0,0.0,56,0.00,,SCT220,0.00,VWS V14.01,2013-01-14 04:45:00,
2013-01-13 20:50:00,39.2,25.3,29.59,ESE,112,0.0,0.0,57,0.00,,SCT220,0.00,VWS V14.01,2013-01-14 04:50:00,
2013-01-13 20:55:00,39.0,25.5,29.59,ESE,112,0.0,0.0,58,0.00,,SCT220,0.00,VWS V14.01,2013-01-14 04:55:00,
2013-01-13 21:00:00,38.8,25.3,29.59,ESE,112,0.0,0.0,58,0.00,,SCT220,0.00,VWS V14.01,2013-01-14 05:00:00,
2013-01-13 21:01:00,38.8,25.3,29.59,ESE,112,0.0,0.0,58,0.00,,FEW200,0.00,VWS V14.01,2013-01-14 05:01:00,
2013-01-13 21:03:00,38.7,24.8,29.59,ESE,112,0.0,0.0,57,0.00,,FEW200,0.00,VWS V14.01,2013-01-14 05:03:00,
2013-01-13 21:08:00,38.5,24.6,29.59,ESE,112,0.0,0.0,57,0.00,,FEW200,0.00,VWS V14.01,2013-01-14 05:08:00,
2013-01-13 21:13:00,38.5,24.6,29.59,ESE,112,0.0,0.0,57,0.00,,FEW200,0.00,VWS V14.01,2013-01-14 05:13:00,
2013-01-13 21:18:00,38.5,24.2,29.59,ESE,112,0.0,0.0,56,0.00,,FEW200,0.00,VWS V14.01,2013-01-14 05:18:00,
2013-01-13 21:23:00,38.3,24.0,29.59,ESE,112,0.0,0.0,56,0.00,,FEW200,0.00,VWS V14.01,2013-01-14 05:23:00,
2013-01-13 21:28:00,38.1,23.4,29.59,ESE,112,0.0,0.0,55,0.00,,FEW200,0.00,VWS V14.01,2013-01-14 05:28:00,
2013-01-13 21:33:00,37.9,23.2,29.59,ESE,112,0.0,0.0,55,0.00,,FEW200,0.00,VWS V14.01,2013-01-14 05:33:00,
2013-01-13 21:38:00,37.8,23.1,29.59,ESE,112,0.0,0.0,55,0.00,,FEW200,0.00,VWS V14.01,2013-01-14 05:38:00,
2013-01-13 21:43:00,37.8,23.1,29.59,ESE,112,0.0,0.0,55,0.00,,FEW200,0.00,VWS V14.01,2013-01-14 05:43:00,
2013-01-13 21:48:00,37.9,23.2,29.59,ESE,112,0.0,0.0,55,0.00,,FEW200,0.00,VWS V14.01,2013-01-14 05:48:00,
2013-01-13 21:53:00,38.1,23.0,29.59,ESE,112,0.0,0.0,54,0.00,,FEW200,0.00,VWS V14.01,2013-01-14 05:53:00,
2013-01-13 21:58:00,38.1,23.0,29.59,ESE,112,0.0,0.0,54,0.00,,FEW200,0.00,VWS V14.01,2013-01-14 05:58:00,
2013-01-13 22:03:00,37.9,22.4,29.59,ESE,112,0.0,0.0,53,0.00,,FEW200,0.00,VWS V14.01,2013-01-14 06:03:00,
2013-01-13 22:08:00,37.9,22.4,29.59,ESE,112,0.0,0.0,53,0.00,,FEW200,0.00,VWS V14.01,2013-01-14 06:08:00,
2013-01-13 22:13:00,37.6,22.0,29.59,ESE,112,0.0,0.0,53,0.00,,FEW200,0.00,VWS V14.01,2013-01-14 06:13:00,
2013-01-13 22:18:00,37.2,22.1,29.59,ESE,112,0.0,0.0,54,0.00,,FEW200,0.00,VWS V14.01,2013-01-14 06:18:00,
2013-01-13 22:23:00,37.2,22.6,29.59,ESE,112,0.0,0.0,55,0.00,,FEW200,0.00,VWS V14.01,2013-01-14 06:23:00,
2013-01-13 22:29:00,37.6,23.3,29.59,ESE,112,0.0,0.0,56,0.00,,FEW200,0.00,VWS V14.01,2013-01-14 06:29:00,
2013-01-13 22:34:00,37.4,23.1,29.59,ESE,112,0.0,0.0,56,0.00,,FEW200,0.00,VWS V14.01,2013-01-14 06:34:00,
2013-01-13 22:39:00,37.4,23.6,29.59,ESE,112,0.0,0.0,57,0.00,,FEW200,0.00,VWS V14.01,2013-01-14 06:39:00,
2013-01-13 22:44:00,37.6,24.2,29.59,ESE,112,0.0,0.0,58,0.00,,FEW200,0.00,VWS V14.01,2013-01-14 06:44:00,
2013-01-13 22:49:00,37.6,24.2,29.59,ESE,112,0.0,0.0,58,0.00,,FEW200,0.00,VWS V14.01,2013-01-14 06:49:00,
2013-01-13 22:55:00,37.6,25.0,29.59,ESE,112,0.0,0.0,60,0.00,,FEW200,0.00,VWS V14.01,2013-01-14 06:55:00,
2013-01-13 23:00:00,37.4,25.2,29.59,ESE,112,0.0,0.0,61,0.00,,FEW200,0.00,VWS V14.01,2013-01-14 07:00:00,
2013-01-13 23:05:00,37.4,26.0,29.59,ESE,112,0.0,0.0,63,0.00,,FEW180,0.00,VWS V14.01,2013-01-14 07:05:00,
2013-01-13 23:10:00,37.0,25.2,29.59,ESE,112,0.0,0.0,62,0.00,,FEW180,0.00,VWS V14.01,2013-01-14 07:10:00,
2013-01-13 23:15:00,36.9,24.7,29.59,ESE,112,0.0,0.0,61,0.00,,FEW180,0.00,VWS V14.01,2013-01-14 07:15:00,
2013-01-13 23:20:00,36.7,24.1,29.59,ESE,112,0.0,0.0,60,0.00,,FEW180,0.00,VWS V14.01,2013-01-14 07:20:00,
2013-01-13 23:25:00,36.7,24.1,29.59,ESE,112,0.0,0.0,60,0.00,,FEW180,0.00,VWS V14.01,2013-01-14 07:25:00,
2013-01-13 23:30:00,36.5,24.0,29.62,ESE,112,0.0,0.0,60,0.00,,FEW180,0.00,VWS V14.01,2013-01-14 07:30:00,
2013-01-13 23:35:00,36.3,23.4,29.62,ESE,112,0.0,0.0,59,0.00,,FEW180,0.00,VWS V14.01,2013-01-14 07:35:00,
2013-01-13 23:40:00,36.7,22.5,29.62,ESE,112,0.0,0.0,56,0.00,,FEW180,0.00,VWS V14.01,2013-01-14 07:40:00,
2013-01-13 23:45:00,36.9,21.8,29.62,ESE,112,0.0,0.0,54,0.00,,FEW180,0.00,VWS V14.01,2013-01-14 07:45:00,
2013-01-13 23:52:00,36.3,21.3,29.62,ESE,112,0.0,0.0,54,0.00,,FEW180,0.00,VWS V14.01,2013-01-14 07:52:00,
2013-01-13 23:57:00,36.1,21.1,29.62,ESE,112,0.0,0.0,54,0.00,,FEW180,0.00,VWS V14.01,2013-01-14 07:57:00,